Location: Sluknov
(51.0170°N, 14.4670°E)
Time: 10:40:24
(UTC+01:00)

ARIANE 6 FM1 Upper Stage - Pass Details

Date: 20 February 2026
Orbit: 523 x 607 km, 62.0° (Epoch: 7 March)

Event Time Altitude Azimuth Distance (km) Brightness Sun altitude
Rises 18:37:25 0° 307° (NW) 2,660 7.0 -11.7°
Reaches altitude 10° 18:39:48 10° 295° (WNW) 1,767 6.3 -12.1°
Maximum altitude 18:43:13 28° 236° (SW) 999 4.6 -12.6°
Drops below altitude 10° 18:46:38 10° 176° (S) 1,769 5.2 -13.2°
Sets 18:49:02 0° 165° (SSE) 2,664 6.0 -13.5°
